カタログに戻る

DELTA 1 DEB

LostUNKNOWN
NORAD 40760·DEBRIS·🇺🇸 United States

打ち上げ Jul 29, 1976 から Vandenberg Space Force Base

Loading…

次のパス (今後24時間)

TLE

古いSource: Space-Track

元期: Oct 10, 2015, 07:21 UTC

1 40760U 76077GD  15283.30628904  .00000010  00000-0  79104-3 0  9990
2 40760 103.3241 316.1683 0465124  55.5238 308.8812 11.55933568 45297

AllMySatでDELTA 1 DEBをリアルタイム追跡

Download on the App Store